This demonstration page uses our WeatherBlox Daily Observations layout. Learn more.

39.01783, -85.05884

Hourly Observations for August 18, 2019

Temp ( °F °C ) Dew Point ( °F °C ) Humidity (%) Winds ( mph kmh ) Pressure ( in mb ) Visibility ( mi km ) Precip ( " mm )
12:52 am 00:52 Partly Cloudy 75 23.9 68 20 79 79 S 7 11 29.91 1013 10 16.09344 0 0
1:52 am 01:52 Partly Cloudy 75 23.9 68 20 79 79 SSW 6 9 29.91 1013 10 16.09344 0 0
2:52 am 02:52 Partly Cloudy 75 23.9 68 20 79 79 SSW 6 9 29.91 1013 10 16.09344 0 0
3:52 am 03:52 Mostly Cloudy 75 23.9 68 20 79 79 S 6 9 29.91 1013 10 16.09344 0 0
4:52 am 04:52 Mostly Cloudy 74 23.3 68 20 82 82 S 6 9 29.88 1012 10 16.09344 0 0
5:52 am 05:52 Mostly Cloudy 73 22.8 68 20 84 84 Calm 29.91 1013 10 16.09344 0 0
6:52 am 06:52 Partly Cloudy 71 21.7 67 19.4 87 87 S 6 9 29.91 1013 10 16.09344 0 0
7:52 am 07:52 Mostly Sunny 73 22.8 69 20.6 87 87 SSW 5 7 29.91 1013 10 16.09344 0 0
8:52 am 08:52 Mostly Cloudy 78 25.6 69 20.6 74 74 SSW 7 11 29.94 1014 10 16.09344 0 0
9:52 am 09:52 Mostly Cloudy 81 27.2 70 21.1 69 69 SW 5 7 29.94 1014 10 16.09344 0 0
10:52 am 10:52 Mostly Cloudy 86 30 70 21.1 59 59 SSW 6 9 29.94 1014 10 16.09344 0 0
11:52 am 11:52 Mostly Cloudy 86 30 70 21.1 59 59 SW 8 13 29.94 1014 10 16.09344 0 0
12:52 pm 12:52 Mostly Cloudy 89 31.7 71 21.7 55 55 SSW 8 13 29.94 1014 10 16.09344 0 0
1:52 pm 13:52 Mostly Cloudy 90 32.2 67 19.4 47 47 SSW 9 15 29.94 1014 10 16.09344 0 0
2:52 pm 14:52 Mostly Cloudy 90 32.2 65 18.3 44 44 SW 8 13 29.94 1014 10 16.09344 0 0
3:52 pm 15:52 Partly Cloudy 91 32.8 67 19.4 45 45 S 10 17 29.91 1013 10 16.09344 0 0
4:52 pm 16:52 Mostly Sunny 93 33.9 65 18.3 40 40 SW 12 19 29.88 1012 10 16.09344 0 0
5:52 pm 17:52 Mostly Sunny 92 33.3 65 18.3 41 41 SSW 10 17 29.85 1011 10 16.09344 0 0
6:52 pm 18:52 Partly Cloudy 90 32.2 64 17.8 42 42 SSW 10 17 29.85 1011 10 16.09344 0 0
7:52 pm 19:52 Mostly Cloudy 86 30 65 18.3 49 49 SSW 7 11 29.85 1011 10 16.09344 0 0
8:52 pm 20:52 Mostly Cloudy 83 28.3 66 18.9 57 57 SW 7 11 29.85 1011 10 16.09344 0 0
9:52 pm 21:52 Cloudy 84 28.9 65 18.3 53 53 SW 8 13 29.88 1012 10 16.09344 0 0
10:52 pm 22:52 Cloudy 80 26.7 65 18.3 60 60 NW 17 28 29.91 1013 10 16.09344 0 0
11:52 pm 23:52 Cloudy 76 24.4 64 17.8 67 67 WNW 8 13 29.94 1014 10 16.09344 0 0

Powered by AerisWeather